Regional Weather Roundup
Issued by NWS New Orleans/Baton Rouge, LA

Home | Current Version | Previous Version | Graphics & Text | Print | Product List | Glossary On
Versions: 1 2 3 4 5 6 7 8 9 10 11 12 13 14 15 16 17 18 19 20 21 22 23 24 25 26 27 28 29 30 31 32 33 34 35 36 37 38 39 40 41 42 43 44 45 46 47 48 49 50
878
ASUS44 KLIX 172305
RWRLIX
NEW ORLEANS REGIONAL WEATHER ROUNDUP
NATIONAL WEATHER SERVICE NEW ORLEANS LA
600 PM CDT WED SEP 17 2014

NOTE: "FAIR" INDICATES FEW OR NO CLOUDS BELOW 12,000 FEET WITH NO
      SIGNIFICANT WEATHER AND/OR OBSTRUCTIONS TO VISIBILITY.
      SKY/WX - SKY CONDITION AND SIGNIFICANT WEATHER.
      TMP - AIR TEMPERATURE.     DP    - DEWPOINT TEMPERATURE.
      RH  - RELATIVE HUMIDITY.   PRES  - PRESSURE.
      HI  - HEAT INDEX.          WCI   - WIND CHILL INDEX.

*  THESE STATIONS ARE NOT NWS OR FAA STATIONS AND ARE NOT UNDER
   NWS QUALITY CONTROL.

LAZ038-040-048-061>063-065>067-069-180000-
SOUTHEAST LOUISIANA

CITY           SKY/WX    TMP DP  RH WIND       PRES   REMARKS
N.O. AUDUBON     N/A     87  76  69 MISG        N/A  HX  97
N.O. INTL ARPT PTSUNNY   88  68  51 S3        29.90S
N.O. LAKEFRONT CLOUDY    85  72  65 N3        29.91R
N.O. DOWNTOWN* CLOUDY    88  72  58 SE3       29.90S
SLIDELL        PTSUNNY   83  73  72 SW5       29.90R
BATON ROUGE    PTSUNNY   88  71  57 NE5       29.90S
BOOTHVILLE     CLOUDY    83  73  72 CALM      29.92R
BELLE CHASSE   PTSUNNY   85  72  65 S8        29.89F
BOGALUSA*        N/A     89  69  52 SW3       29.91S
GALLIANO*      NOT AVBL
NEW ROADS*       N/A     86  73  64 NE3       29.90S
GONZALES*        N/A     86  74  67 CALM      29.89F
HAMMOND*       PTSUNNY   84  72  65 W3        29.92S
HOUMA*         PTSUNNY   75  72  88 CALM      29.91
PORT FOURCHON* PTCLDY    84  73  70 SW8       29.94S

$$

MSZ070-080>082-180000-
SOUTHERN MISSISSIPPI

CITY           SKY/WX    TMP DP  RH WIND       PRES   REMARKS
MCCOMB         PTSUNNY   86  69  56 SW3       29.91S
GULFPORT       MOSUNNY   85  72  65 S7        29.89R
BILOXI         SUNNY     84  72  65 SW7       29.90R
PASCAGOULA     PTSUNNY   84  73  69 S8        29.90R
STENNIS ARPT*  SUNNY     82  70  65 S5        29.90R

$$

COASTAL OBSERVATIONS
LAKE AND NEARSHORE STATIONS

STATION/POSITION TIME  TEMP    WIND        PRES    WAVE
                       AIR SEA DIR/SP/G            HT/PER
                 (UTC) (F)     (DEG/KT/KT) (MB)    (FT/S)
PASCAGOULA       2300   85     220/  8/  9 1012.0
WAVELAND YACHT   2300   83     230/  5/  9 1011.9
GRAND ISLE       2300   84 88   CALM  /  3 1013.5
SOUTHWEST PASS   2300   85 92  250/  7/  9 1013.2
NEW CANAL        2300   84 83  360/  3/  3 1013.0
SHELL BEACH      2300   83 82  160/  5/  5 1012.5

OFFSHORE STATIONS

STATION/POSITION TIME  TEMP    WIND        PRES    WAVE
                       AIR SEA DIR/SP/G            HT/PER
                 (UTC) (F)     (DEG/KT/KT) (MB)    (FT/S)
64 S DAUPHIN ISL 2239   82 87  210/  2/  4 1013.2    1/ 4

$$




USA.gov is the U.S. government's official web portal to all federal, state and local government web resources and services.